QPF
0.12 0.12 0.14 0.19 0.21 0.24 0.26 0.27 0.24 0.20 0.15 0.09 0.09 0.07 0.06 0.03 0.01 0.02 0.06 0.02 0.01 0.02 0.01 0.01 0.01 0.02 0.01 0.01 0.01 0.02 0.03 0.04 0.04 0.04 0.06 0.06 0.05 0.03 0.02 0.01 0.01 0.02 0.02
0.08 0.11 0.12 0.16 0.18 0.20 0.26 0.28 0.23 0.21 0.17 0.12 0.10 0.10 0.05 0.03 0.02 0.01 0.03 0.01 0.00 0.01 0.01 0.02 0.01 0.01 0.01 0.01 0.01 0.02 0.02 0.02 0.03 0.04 0.04 0.05 0.05 0.03 0.02 0.01 0.01 0.01 0.01
0.05 0.07 0.09 0.12 0.15 0.19 0.22 0.27 0.25 0.27 0.22 0.17 0.12 0.09 0.05 0.03 0.02 0.01 0.01 0.02 0.01 0.01 0.00 0.01 0.01 0.01 0.01 0.01 0.01 0.02 0.02 0.02 0.03 0.03 0.03 0.03 0.04 0.03 0.02 0.02 0.01 0.01 0.01
0.03 0.04 0.05 0.08 0.11 0.15 0.19 0.22 0.28 0.31 0.27 0.25 0.20 0.12 0.06 0.04 0.02 0.01 0.02 0.03 0.02 0.02 0.01 0.00 0.00 0.00 0.00 0.01 0.01 0.01 0.02 0.02 0.02 0.02 0.03 0.03 0.03 0.03 0.02 0.01 0.01 0.01 0.01
0.02 0.03 0.05 0.06 0.08 0.10 0.13 0.17 0.23 0.26 0.27 0.23 0.21 0.18 0.11 0.08 0.05 0.02 0.02 0.04 0.03 0.02 0.03 0.02 0.00 0.00 0.00 0.00 0.01 0.01 0.02 0.02 0.02 0.02 0.02 0.02 0.02 0.02 0.01 0.01 0.01 0.01 0.01
0.02 0.03 0.03 0.04 0.06 0.08 0.10 0.14 0.18 0.20 0.22 0.23 0.22 0.20 0.17 0.11 0.07 0.05 0.03 0.03 0.04 0.05 0.05 0.04 0.02 0.01 0.00 0.00 0.01 0.01 0.02 0.02 0.01 0.01 0.01 0.01 0.02 0.02 0.02 0.01 0.01 0.01 0.00
0.03 0.03 0.03 0.03 0.05 0.06 0.07 0.10 0.14 0.16 0.17 0.20 0.20 0.18 0.18 0.16 0.11 0.08 0.05 0.03 0.04 0.05 0.07 0.09 0.06 0.02 0.00 0.00 0.00 0.01 0.01 0.02 0.02 0.02 0.01 0.01 0.01 0.01 0.01 0.01 0.01 0.01 0.01
0.04 0.03 0.04 0.04 0.04 0.05 0.04 0.06 0.11 0.13 0.13 0.18 0.19 0.18 0.15 0.15 0.11 0.06 0.05 0.03 0.04 0.03 0.04 0.08 0.09 0.04 0.01 0.00 0.00 0.00 0.00 0.01 0.02 0.03 0.03 0.02 0.01 0.01 0.01 0.01 0.01 0.01 0.01
0.04 0.04 0.04 0.05 0.05 0.06 0.06 0.06 0.08 0.10 0.11 0.13 0.17 0.19 0.14 0.13 0.14 0.08 0.05 0.03 0.04 0.05 0.06 0.06 0.08 0.06 0.04 0.02 0.01 0.00 0.00 0.00 0.02 0.03 0.03 0.03 0.02 0.01 0.01 0.00 0.01 0.01 0.01
0.03 0.03 0.03 0.04 0.05 0.07 0.07 0.07 0.09 0.11 0.11 0.10 0.13 0.13 0.13 0.13 0.14 0.11 0.08 0.04 0.03 0.04 0.05 0.06 0.07 0.08 0.07 0.05 0.04 0.01 0.00 0.00 0.00 0.02 0.03 0.03 0.03 0.02 0.01 0.01 0.01 0.01 0.01
0.02 0.02 0.02 0.02 0.04 0.05 0.06 0.07 0.10 0.12 0.12 0.10 0.10 0.11 0.11 0.11 0.09 0.10 0.09 0.06 0.04 0.03 0.03 0.05 0.08 0.09 0.10 0.07 0.05 0.03 0.01 0.00 0.00 0.01 0.03 0.04 0.03 0.03 0.02 0.01 0.01 0.01 0.01
0.02 0.02 0.02 0.02 0.02 0.03 0.04 0.04 0.07 0.10 0.12 0.12 0.12 0.11 0.10 0.08 0.07 0.07 0.07 0.08 0.07 0.05 0.04 0.04 0.06 0.08 0.09 0.09 0.08 0.09 0.04 0.01 0.00 0.00 0.02 0.05 0.04 0.04 0.03 0.03 0.02 0.01 0.01
0.01 0.01 0.01 0.01 0.02 0.02 0.02 0.02 0.04 0.06 0.09 0.12 0.11 0.12 0.11 0.10 0.11 0.11 0.11 0.10 0.10 0.07 0.06 0.06 0.05 0.06 0.08 0.08 0.12 0.13 0.06 0.03 0.00 0.00 0.00 0.01 0.03 0.04 0.05 0.05 0.05 0.03 0.02
0.00 0.00 0.02 0.02 0.02 0.02 0.02 0.03 0.04 0.05 0.06 0.08 0.08 0.11 0.10 0.09 0.11 0.11 0.10 0.12 0.11 0.09 0.07 0.05 0.04 0.04 0.05 0.08 0.14 0.16 0.07 0.04 0.01 0.00 0.00 0.00 0.01 0.02 0.04 0.05 0.05 0.04 0.03
0.01 0.01 0.01 0.02 0.02 0.03 0.04 0.04 0.04 0.05 0.06 0.07 0.09 0.11 0.11 0.10 0.11 0.10 0.11 0.12 0.11 0.09 0.06 0.04 0.05 0.04 0.04 0.07 0.15 0.15 0.08 0.06 0.02 0.00 0.00 0.00 0.01 0.01 0.02 0.02 0.04 0.04 0.03
0.01 0.01 0.00 0.01 0.01 0.02 0.03 0.05 0.05 0.05 0.06 0.07 0.09 0.11 0.13 0.14 0.13 0.12 0.13 0.13 0.13 0.10 0.08 0.06 0.05 0.04 0.06 0.07 0.11 0.11 0.12 0.14 0.07 0.02 0.01 0.01 0.01 0.01 0.01 0.01 0.02 0.02 0.01
0.00 0.00 0.00 0.00 0.01 0.02 0.02 0.03 0.04 0.05 0.07 0.08 0.08 0.09 0.11 0.13 0.14 0.14 0.14 0.14 0.13 0.11 0.08 0.08 0.08 0.06 0.07 0.07 0.08 0.08 0.12 0.14 0.09 0.05 0.03 0.02 0.02 0.02 0.01 0.01 0.01 0.01 0.00
0.00 0.00 0.00 0.00 0.00 0.01 0.02 0.03 0.04 0.04 0.06 0.07 0.08 0.09 0.09 0.10 0.12 0.15 0.16 0.15 0.14 0.14 0.12 0.09 0.10 0.08 0.05 0.05 0.07 0.09 0.12 0.13 0.11 0.09 0.06 0.04 0.04 0.03 0.02 0.01 0.01 0.01 0.01
0.00 0.00 0.00 0.00 0.00 0.01 0.01 0.02 0.04 0.04 0.04 0.05 0.06 0.07 0.08 0.09 0.10 0.12 0.14 0.15 0.14 0.14 0.15 0.13 0.11 0.11 0.09 0.08 0.08 0.09 0.11 0.14 0.15 0.14 0.12 0.09 0.07 0.06 0.04 0.03 0.03 0.02 0.02
0.00 0.00 0.00 0.00 0.00 0.01 0.01 0.01 0.02 0.02 0.02 0.03 0.05 0.06 0.08 0.09 0.10 0.10 0.12 0.15 0.16 0.16 0.17 0.15 0.13 0.12 0.12 0.13 0.13 0.11 0.12 0.12 0.14 0.14 0.15 0.14 0.13 0.12 0.09 0.07 0.05 0.03 0.02
0.00 0.00 0.00 0.00 0.01 0.01 0.00 0.00 0.01 0.01 0.03 0.04 0.05 0.06 0.06 0.07 0.06 0.06 0.07 0.11 0.15 0.17 0.16 0.15 0.13 0.11 0.11 0.13 0.14 0.13 0.14 0.15 0.16 0.16 0.17 0.17 0.18 0.16 0.14 0.11 0.08 0.06 0.04
0.00 0.00 0.00 0.00 0.01 0.00 0.00 0.00 0.01 0.02 0.03 0.05 0.06 0.06 0.06 0.06 0.05 0.04 0.04 0.06 0.10 0.13 0.14 0.14 0.12 0.10 0.09 0.10 0.12 0.16 0.16 0.19 0.21 0.18 0.18 0.21 0.21 0.22 0.19 0.16 0.13 0.11 0.08
0.00 0.00 0.00 0.00 0.01 0.00 0.00 0.01 0.01 0.02 0.03 0.05 0.06 0.07 0.06 0.06 0.06 0.07 0.07 0.06 0.08 0.10 0.11 0.14 0.13 0.10 0.11 0.11 0.11 0.14 0.17 0.17 0.17 0.18 0.20 0.26 0.28 0.29 0.25 0.22 0.21 0.17 0.14
0.00 0.00 0.00 0.00 0.00 0.00 0.00 0.00 0.01 0.04 0.05 0.04 0.05 0.05 0.05 0.07 0.06 0.06 0.07 0.09 0.11 0.10 0.09 0.12 0.14 0.14 0.14 0.16 0.15 0.15 0.20 0.24 0.24 0.25 0.24 0.29 0.32 0.30 0.28 0.29 0.30 0.25 0.21
0.00 0.00 0.00 0.00 0.00 0.00 0.00 0.00 0.01 0.04 0.04 0.03 0.04 0.04 0.03 0.04 0.04 0.04 0.05 0.08 0.13 0.11 0.08 0.10 0.11 0.13 0.16 0.16 0.19 0.20 0.22 0.25 0.29 0.30 0.27 0.26 0.30 0.33 0.36 0.35 0.33 0.30 0.25
0.00 0.00 0.00 0.00 0.00 0.00 0.00 0.00 0.00 0.02 0.02 0.02 0.04 0.05 0.04 0.03 0.03 0.04 0.05 0.07 0.12 0.14 0.10 0.08 0.07 0.08 0.10 0.12 0.15 0.17 0.20 0.22 0.23 0.28 0.28 0.25 0.27 0.31 0.39 0.39 0.32 0.27 0.24
MSLP
1012.56 1012.59 1012.60 1012.60 1012.64 1012.73 1012.88 1013.08 1013.31 1013.50 1013.61 1013.62 1013.50 1013.29 1013.03 1012.78 1012.59 1012.53 1012.62 1012.86 1013.22 1013.65 1014.10 1014.53 1014.89 1015.17 1015.37 1015.51 1015.62 1015.73 1015.86 1016.01 1016.21 1016.44 1016.69 1016.96 1017.23 1017.51 1017.77 1018.03 1018.26 1018.48 1018.66
1012.41 1012.39 1012.35 1012.32 1012.33 1012.41 1012.55 1012.76 1013.00 1013.23 1013.38 1013.44 1013.38 1013.22 1012.99 1012.75 1012.56 1012.48 1012.53 1012.72 1013.03 1013.44 1013.88 1014.32 1014.71 1015.04 1015.29 1015.49 1015.64 1015.78 1015.92 1016.08 1016.26 1016.48 1016.73 1017.00 1017.29 1017.58 1017.88 1018.16 1018.43 1018.66 1018.86
1012.37 1012.30 1012.22 1012.16 1012.14 1012.19 1012.32 1012.51 1012.75 1012.99 1013.18 1013.27 1013.27 1013.16 1012.97 1012.76 1012.58 1012.47 1012.47 1012.60 1012.86 1013.21 1013.61 1014.04 1014.45 1014.81 1015.11 1015.36 1015.57 1015.74 1015.91 1016.08 1016.27 1016.48 1016.72 1016.99 1017.29 1017.60 1017.91 1018.22 1018.51 1018.77 1018.98
1012.44 1012.34 1012.22 1012.12 1012.07 1012.08 1012.17 1012.34 1012.55 1012.78 1012.98 1013.10 1013.14 1013.08 1012.95 1012.77 1012.60 1012.48 1012.44 1012.51 1012.68 1012.96 1013.30 1013.69 1014.09 1014.46 1014.81 1015.11 1015.37 1015.59 1015.80 1015.99 1016.20 1016.42 1016.66 1016.93 1017.23 1017.55 1017.87 1018.20 1018.50 1018.77 1019.00
1012.58 1012.46 1012.32 1012.19 1012.10 1012.08 1012.12 1012.23 1012.40 1012.59 1012.78 1012.92 1012.98 1012.98 1012.89 1012.76 1012.61 1012.48 1012.41 1012.42 1012.51 1012.70 1012.97 1013.29 1013.65 1014.02 1014.38 1014.72 1015.03 1015.32 1015.58 1015.82 1016.05 1016.29 1016.55 1016.82 1017.12 1017.44 1017.77 1018.10 1018.41 1018.69 1018.93
1012.78 1012.63 1012.48 1012.33 1012.22 1012.14 1012.14 1012.19 1012.29 1012.44 1012.58 1012.72 1012.80 1012.83 1012.80 1012.72 1012.60 1012.48 1012.38 1012.34 1012.35 1012.45 1012.62 1012.86 1013.16 1013.50 1013.86 1014.23 1014.59 1014.93 1015.26 1015.56 1015.84 1016.12 1016.40 1016.69 1016.99 1017.31 1017.64 1017.96 1018.26 1018.54 1018.78
1013.00 1012.84 1012.67 1012.51 1012.37 1012.26 1012.20 1012.19 1012.23 1012.31 1012.41 1012.52 1012.61 1012.66 1012.68 1012.64 1012.57 1012.47 1012.36 1012.27 1012.22 1012.22 1012.29 1012.44 1012.66 1012.95 1013.30 1013.67 1014.07 1014.47 1014.86 1015.22 1015.57 1015.91 1016.23 1016.54 1016.86 1017.17 1017.49 1017.80 1018.09 1018.36 1018.60
1013.20 1013.02 1012.86 1012.69 1012.54 1012.41 1012.31 1012.24 1012.21 1012.22 1012.27 1012.34 1012.42 1012.49 1012.54 1012.55 1012.52 1012.45 1012.34 1012.22 1012.11 1012.04 1012.01 1012.06 1012.20 1012.42 1012.72 1013.09 1013.50 1013.95 1014.40 1014.84 1015.26 1015.66 1016.03 1016.38 1016.71 1017.03 1017.34 1017.64 1017.92 1018.18 1018.42
1013.35 1013.17 1013.01 1012.85 1012.70 1012.57 1012.44 1012.33 1012.24 1012.18 1012.17 1012.19 1012.24 1012.31 1012.38 1012.43 1012.44 1012.40 1012.31 1012.18 1012.03 1011.89 1011.78 1011.74 1011.78 1011.93 1012.18 1012.51 1012.93 1013.40 1013.90 1014.40 1014.89 1015.35 1015.78 1016.18 1016.54 1016.87 1017.18 1017.47 1017.75 1018.00 1018.24
1013.45 1013.26 1013.10 1012.97 1012.84 1012.70 1012.57 1012.42 1012.28 1012.17 1012.09 1012.06 1012.07 1012.12 1012.20 1012.27 1012.31 1012.31 1012.25 1012.12 1011.96 1011.77 1011.60 1011.48 1011.44 1011.50 1011.68 1011.97 1012.36 1012.83 1013.36 1013.90 1014.45 1014.97 1015.46 1015.90 1016.30 1016.67 1016.99 1017.29 1017.57 1017.83 1018.08
1013.46 1013.27 1013.13 1013.02 1012.92 1012.80 1012.67 1012.50 1012.32 1012.15 1012.01 1011.91 1011.88 1011.90 1011.96 1012.04 1012.11 1012.14 1012.11 1012.01 1011.85 1011.65 1011.44 1011.26 1011.14 1011.13 1011.24 1011.47 1011.82 1012.26 1012.78 1013.35 1013.93 1014.49 1015.03 1015.53 1015.97 1016.38 1016.73 1017.06 1017.35 1017.63 1017.90
1013.38 1013.21 1013.10 1013.01 1012.94 1012.85 1012.71 1012.53 1012.32 1012.10 1011.89 1011.73 1011.63 1011.61 1011.65 1011.74 1011.82 1011.89 1011.89 1011.83 1011.69 1011.50 1011.27 1011.06 1010.90 1010.82 1010.85 1011.01 1011.30 1011.70 1012.19 1012.74 1013.32 1013.92 1014.49 1015.03 1015.52 1015.98 1016.38 1016.74 1017.08 1017.40 1017.70
1013.23 1013.08 1012.99 1012.94 1012.89 1012.81 1012.68 1012.49 1012.24 1011.97 1011.71 1011.48 1011.33 1011.26 1011.27 1011.34 1011.44 1011.53 1011.58 1011.55 1011.46 1011.29 1011.08 1010.86 1010.67 1010.54 1010.52 1010.61 1010.82 1011.16 1011.59 1012.10 1012.67 1013.26 1013.85 1014.42 1014.97 1015.47 1015.93 1016.35 1016.74 1017.10 1017.46
1013.03 1012.90 1012.83 1012.80 1012.77 1012.70 1012.57 1012.36 1012.09 1011.77 1011.46 1011.18 1010.97 1010.86 1010.84 1010.89 1010.99 1011.10 1011.18 1011.20 1011.15 1011.03 1010.85 1010.65 1010.45 1010.30 1010.23 1010.26 1010.41 1010.67 1011.03 1011.48 1012.01 1012.58 1013.17 1013.76 1014.33 1014.88 1015.40 1015.88 1016.34 1016.76 1017.17
1012.80 1012.69 1012.64 1012.63 1012.60 1012.53 1012.39 1012.16 1011.86 1011.51 1011.16 1010.84 1010.59 1010.44 1010.39 1010.43 1010.52 1010.64 1010.74 1010.80 1010.79 1010.71 1010.58 1010.40 1010.22 1010.07 1009.98 1009.97 1010.05 1010.24 1010.54 1010.93 1011.40 1011.93 1012.50 1013.09 1013.69 1014.28 1014.85 1015.39 1015.90 1016.39 1016.85
1012.59 1012.50 1012.46 1012.45 1012.41 1012.33 1012.16 1011.92 1011.60 1011.23 1010.86 1010.52 1010.25 1010.07 1009.99 1010.00 1010.08 1010.19 1010.30 1010.37 1010.39 1010.35 1010.25 1010.11 1009.96 1009.83 1009.73 1009.70 1009.76 1009.90 1010.14 1010.47 1010.88 1011.37 1011.91 1012.49 1013.10 1013.71 1014.31 1014.90 1015.46 1016.00 1016.51
1012.43 1012.36 1012.32 1012.29 1012.23 1012.12 1011.93 1011.67 1011.34 1010.97 1010.60 1010.26 1009.98 1009.79 1009.69 1009.67 1009.72 1009.80 1009.88 1009.94 1009.95 1009.92 1009.85 1009.75 1009.63 1009.53 1009.46 1009.45 1009.50 1009.63 1009.83 1010.12 1010.50 1010.94 1011.45 1012.00 1012.60 1013.22 1013.84 1014.46 1015.06 1015.63 1016.18
1012.35 1012.28 1012.23 1012.17 1012.08 1011.93 1011.72 1011.45 1011.12 1010.76 1010.40 1010.08 1009.81 1009.62 1009.50 1009.45 1009.44 1009.46 1009.49 1009.49 1009.47 1009.42 1009.36 1009.27 1009.20 1009.14 1009.12 1009.15 1009.24 1009.38 1009.59 1009.87 1010.22 1010.63 1011.10 1011.63 1012.21 1012.82 1013.44 1014.07 1014.68 1015.28 1015.85
1012.33 1012.26 1012.18 1012.09 1011.96 1011.78 1011.55 1011.27 1010.95 1010.61 1010.28 1009.99 1009.74 1009.54 1009.40 1009.30 1009.22 1009.16 1009.10 1009.02 1008.93 1008.84 1008.75 1008.68 1008.63 1008.63 1008.68 1008.77 1008.92 1009.11 1009.36 1009.65 1010.00 1010.40 1010.85 1011.35 1011.90 1012.48 1013.09 1013.71 1014.33 1014.93 1015.52
1012.35 1012.26 1012.16 1012.03 1011.86 1011.65 1011.40 1011.11 1010.81 1010.50 1010.21 1009.94 1009.71 1009.51 1009.34 1009.18 1009.02 1008.86 1008.68 1008.50 1008.32 1008.15 1008.02 1007.95 1007.93 1007.98 1008.10 1008.28 1008.50 1008.77 1009.08 1009.41 1009.78 1010.18 1010.62 1011.09 1011.61 1012.16 1012.75 1013.35 1013.96 1014.57 1015.17
1012.36 1012.25 1012.12 1011.96 1011.76 1011.52 1011.25 1010.97 1010.68 1010.40 1010.14 1009.90 1009.68 1009.47 1009.26 1009.03 1008.78 1008.51 1008.22 1007.91 1007.63 1007.39 1007.21 1007.12 1007.12 1007.22 1007.41 1007.67 1007.98 1008.34 1008.71 1009.10 1009.49 1009.90 1010.34 1010.79 1011.29 1011.81 1012.37 1012.95 1013.56 1014.17 1014.78
1012.30 1012.19 1012.04 1011.84 1011.62 1011.36 1011.09 1010.80 1010.53 1010.27 1010.03 1009.80 1009.59 1009.36 1009.11 1008.82 1008.48 1008.10 1007.70 1007.29 1006.91 1006.59 1006.37 1006.26 1006.27 1006.41 1006.66 1006.99 1007.38 1007.81 1008.25 1008.68 1009.11 1009.53 1009.96 1010.41 1010.87 1011.38 1011.92 1012.49 1013.09 1013.71 1014.34
1012.14 1012.03 1011.86 1011.66 1011.42 1011.16 1010.88 1010.61 1010.34 1010.09 1009.86 1009.65 1009.42 1009.17 1008.88 1008.53 1008.13 1007.66 1007.17 1006.68 1006.23 1005.86 1005.59 1005.46 1005.48 1005.64 1005.93 1006.31 1006.75 1007.23 1007.71 1008.17 1008.62 1009.05 1009.48 1009.91 1010.36 1010.85 1011.38 1011.96 1012.57 1013.22 1013.88
1011.85 1011.74 1011.59 1011.40 1011.17 1010.91 1010.65 1010.38 1010.12 1009.89 1009.66 1009.44 1009.20 1008.93 1008.60 1008.22 1007.76 1007.25 1006.71 1006.17 1005.68 1005.28 1004.99 1004.85 1004.87 1005.04 1005.33 1005.72 1006.18 1006.66 1007.15 1007.62 1008.06 1008.48 1008.90 1009.32 1009.77 1010.26 1010.79 1011.38 1012.02 1012.70 1013.42
1011.43 1011.34 1011.22 1011.06 1010.86 1010.63 1010.39 1010.15 1009.90 1009.67 1009.45 1009.22 1008.97 1008.68 1008.34 1007.94 1007.47 1006.94 1006.39 1005.85 1005.35 1004.94 1004.66 1004.51 1004.52 1004.67 1004.94 1005.31 1005.73 1006.18 1006.63 1007.07 1007.48 1007.88 1008.28 1008.69 1009.14 1009.63 1010.19 1010.81 1011.49 1012.21 1012.98
1010.89 1010.84 1010.76 1010.65 1010.51 1010.33 1010.13 1009.93 1009.71 1009.50 1009.28 1009.05 1008.80 1008.50 1008.16 1007.76 1007.30 1006.79 1006.27 1005.75 1005.28 1004.90 1004.62 1004.47 1004.46 1004.57 1004.80 1005.10 1005.46 1005.84 1006.22 1006.59 1006.95 1007.31 1007.67 1008.07 1008.52 1009.04 1009.62 1010.28 1011.00 1011.78 1012.59
Thickness
5727 5730 5732 5733 5735 5737 5739 5741 5743 5745 5748 5752 5756 5759 5762 5765 5767 5767 5764 5763 5762 5761 5759 5758 5757 5757 5757 5757 5757 5757 5757 5757 5757 5756 5755 5755 5754 5753 5752 5751 5751 5750 5749
5723 5725 5727 5729 5731 5733 5735 5737 5739 5741 5744 5748 5752 5756 5760 5763 5766 5766 5764 5763 5762 5761 5760 5759 5758 5757 5757 5757 5757 5757 5756 5756 5756 5755 5755 5754 5753 5752 5751 5750 5749 5749 5748
5717 5720 5721 5724 5726 5729 5731 5733 5734 5736 5739 5742 5746 5751 5755 5759 5763 5765 5764 5763 5762 5761 5761 5760 5759 5758 5757 5757 5757 5757 5756 5756 5755 5755 5754 5753 5752 5751 5750 5749 5748 5747 5746
5710 5712 5715 5717 5721 5723 5726 5727 5729 5729 5732 5736 5739 5744 5750 5755 5759 5762 5764 5764 5763 5762 5761 5760 5760 5759 5758 5757 5757 5756 5756 5755 5755 5754 5753 5753 5751 5750 5750 5749 5748 5746 5745
5701 5704 5707 5710 5714 5717 5719 5722 5724 5725 5727 5730 5733 5738 5743 5749 5753 5758 5760 5763 5764 5764 5762 5761 5760 5759 5758 5758 5757 5757 5756 5755 5754 5754 5753 5752 5751 5750 5749 5748 5747 5745 5744
5694 5697 5700 5703 5706 5709 5711 5715 5717 5720 5723 5725 5728 5732 5736 5742 5747 5751 5755 5760 5763 5764 5763 5762 5760 5759 5758 5758 5757 5757 5756 5755 5754 5753 5752 5751 5750 5749 5748 5747 5746 5744 5743
5687 5690 5692 5695 5698 5701 5704 5708 5710 5712 5716 5719 5719 5721 5728 5735 5739 5745 5750 5754 5758 5762 5762 5761 5760 5760 5759 5758 5757 5757 5756 5755 5754 5753 5752 5751 5749 5748 5747 5746 5745 5743 5742
5683 5685 5686 5688 5692 5694 5697 5700 5703 5705 5709 5713 5713 5712 5713 5720 5730 5739 5743 5747 5753 5757 5760 5761 5760 5760 5760 5759 5758 5757 5756 5755 5754 5753 5751 5750 5749 5747 5746 5745 5743 5742 5741
5679 5680 5681 5683 5685 5688 5689 5693 5696 5698 5699 5705 5710 5709 5707 5709 5718 5728 5736 5742 5746 5751 5755 5759 5759 5759 5760 5760 5759 5757 5756 5755 5754 5752 5751 5749 5748 5746 5745 5744 5742 5741 5739
5676 5676 5677 5678 5680 5682 5684 5687 5691 5693 5694 5696 5702 5707 5710 5713 5710 5713 5724 5734 5740 5745 5749 5754 5757 5758 5759 5759 5759 5758 5756 5754 5753 5752 5750 5749 5747 5745 5744 5742 5741 5739 5738
5673 5673 5673 5674 5675 5677 5679 5682 5684 5687 5689 5691 5694 5698 5702 5706 5710 5708 5710 5721 5729 5738 5744 5748 5750 5754 5756 5757 5757 5756 5755 5753 5752 5751 5749 5748 5746 5744 5742 5741 5739 5737 5736
5670 5670 5670 5670 5671 5672 5674 5676 5679 5681 5684 5686 5689 5692 5694 5697 5701 5704 5706 5711 5717 5727 5736 5741 5745 5748 5751 5753 5754 5755 5752 5751 5750 5749 5748 5746 5745 5743 5741 5739 5737 5735 5733
5667 5667 5667 5667 5668 5669 5670 5672 5674 5676 5678 5680 5683 5686 5690 5694 5698 5700 5700 5704 5709 5717 5725 5732 5739 5742 5745 5747 5749 5750 5749 5748 5747 5746 5745 5744 5743 5741 5739 5737 5735 5733 5731
5666 5666 5665 5665 5666 5666 5667 5668 5668 5670 5673 5675 5678 5680 5683 5687 5692 5694 5696 5696 5698 5704 5712 5721 5731 5736 5739 5741 5743 5745 5745 5744 5743 5743 5742 5741 5740 5738 5736 5734 5732 5730 5728
5667 5666 5664 5664 5664 5664 5664 5664 5663 5665 5667 5669 5671 5674 5677 5681 5685 5689 5692 5693 5692 5692 5700 5712 5720 5729 5733 5734 5736 5738 5739 5739 5739 5739 5738 5737 5736 5735 5733 5731 5729 5727 5725
5667 5665 5664 5662 5661 5661 5661 5660 5659 5660 5661 5663 5665 5668 5670 5674 5678 5681 5685 5688 5690 5691 5694 5706 5713 5721 5725 5729 5730 5731 5734 5734 5733 5734 5733 5733 5732 5731 5730 5728 5726 5723 5721
5668 5665 5663 5660 5659 5658 5657 5655 5654 5654 5655 5656 5659 5661 5664 5668 5670 5674 5678 5681 5684 5687 5689 5698 5706 5712 5716 5720 5722 5725 5728 5728 5728 5728 5729 5728 5728 5727 5726 5724 5722 5719 5717
5668 5665 5662 5658 5656 5654 5652 5650 5648 5648 5648 5649 5652 5654 5657 5661 5663 5666 5670 5674 5677 5682 5684 5687 5695 5701 5706 5711 5714 5717 5721 5723 5723 5724 5724 5723 5723 5722 5721 5720 5718 5715 5713
5667 5664 5661 5657 5654 5651 5648 5645 5643 5642 5642 5643 5645 5647 5650 5653 5655 5658 5662 5666 5670 5675 5679 5681 5686 5692 5697 5703 5705 5709 5712 5715 5717 5718 5718 5718 5718 5718 5716 5715 5713 5711 5709
5666 5662 5659 5655 5652 5648 5644 5640 5637 5636 5636 5638 5640 5643 5645 5648 5650 5652 5655 5659 5662 5666 5671 5674 5678 5683 5688 5694 5696 5699 5702 5706 5709 5711 5712 5712 5712 5711 5711 5710 5708 5706 5704
5665 5662 5657 5653 5650 5645 5641 5635 5632 5632 5631 5632 5635 5638 5641 5644 5646 5647 5649 5651 5654 5657 5661 5666 5670 5674 5679 5683 5688 5693 5694 5697 5700 5704 5704 5705 5705 5705 5704 5704 5703 5701 5699
5664 5661 5656 5652 5647 5644 5639 5634 5630 5628 5628 5628 5630 5633 5636 5639 5640 5642 5644 5646 5649 5651 5654 5658 5663 5667 5673 5678 5682 5685 5687 5687 5690 5697 5697 5698 5699 5700 5700 5699 5698 5696 5694
5665 5661 5656 5652 5647 5643 5639 5634 5631 5628 5627 5627 5627 5629 5631 5633 5634 5635 5637 5641 5644 5648 5651 5654 5658 5663 5668 5674 5676 5678 5680 5682 5686 5691 5690 5690 5692 5693 5695 5694 5692 5691 5688
5665 5661 5657 5653 5649 5645 5640 5636 5632 5629 5628 5627 5627 5626 5626 5627 5627 5628 5630 5634 5638 5643 5648 5652 5655 5659 5664 5668 5672 5674 5677 5677 5679 5682 5684 5683 5685 5686 5687 5687 5686 5684 5682
5666 5662 5659 5655 5651 5647 5643 5638 5633 5630 5628 5627 5626 5625 5624 5623 5624 5625 5626 5629 5633 5638 5643 5648 5651 5655 5659 5663 5666 5666 5667 5667 5669 5672 5676 5677 5677 5676 5677 5678 5678 5677 5675
5668 5664 5661 5658 5655 5651 5646 5641 5636 5631 5629 5627 5626 5625 5624 5622 5622 5623 5623 5625 5628 5632 5637 5641 5645 5649 5653 5657 5660 5662 5663 5663 5663 5664 5668 5669 5669 5667 5665 5667 5669 5668 5666